Weather in Chernevo

Russia / Pskov Oblast     58°38′46″N   28°14′45″E
temp.,
°C
wind,
m/s
gust,
m/s
humid.,
%
clouds,
%
prec.,
mm/h
press.,
hPa
HPBL,
m
19 april, mon
mon1900:00+6ne310665 0.0 1027244
03:00+4ene28825 0.0 1028151
06:00+4ene278851 0.0 1027142
09:00+9ene366635 0.0 1027428
12:00+13ene454964 0.0 10271382
15:00+14ene454095 0.0 10261830
18:00+14ene454022 0.0 10251805
21:00+8ene26615 0.0 1025111
20 april, tue
tue2000:00+5e24815 0.0 102580
03:00+4e25875 0.0 1024102
06:00+2ene27873 0.0 1023144
09:00+6e47564 0.0 1022539
12:00+10e46405 0.0 10201759
15:00+10ese564578 0.0 10191690
18:00+10ese464296 0.0 10171795
21:00+6e2764100 0.0 1016189
21 april, wed
wed2100:00+4e2679100 0.0 1014153
03:00+3ene258768 0.0 1012137
06:00+1ne229696 0.0 101059
09:00+5nne2477100 0.0 1008557
12:00+6n3474100 0.1 1005964
15:00+6nnw3578100 0.3 1004829
18:00+4nnw3690100 0.3 1004502
21:00+3nw2495100 0.4 1004323
22 april, thu
thu2200:00+2nw1195100 0.0 100396
03:00+1sse1196100 0.0 100411
06:00+1ssw229589 0.0 100425
09:00+7sw356684 0.0 1005413
12:00+12sw355112 0.0 10061213
15:00+12sw465797 0.3 10071394
18:00+6w3789100 0.3 1009454
21:00+4sse2390100 0.3 101056
23 april, fri
fri2300:00+3ssw2482100 0.0 101080
03:00+3s2278100 0.0 100954
06:00+3sse3788100 0.1 1008301
09:00+4s3585100 0.7 1007582
12:00+8sw3448100 0.1 10071726
15:00+10wsw343795 0.1 10062061
18:00+10sw123994 0.0 10051796
21:00+4wnw226773 0.1 100641